Location: Delettes
(50.6178°N, 2.2123°E)
Time: 18:08:46
(UTC+00:00)

STARLINK-1052 - Pass Details

Date: 27 February 2020
Orbit: 548 x 551 km, 53.0° (Epoch: 01 April)

Event Time Altitude Azimuth Distance (km) Brightness Sun altitude
Rises 18:05:50 0° 242° (WSW) 2,710 8.6 -6.7°
Reaches altitude 10° 18:08:03 10° 241° (WSW) 1,819 7.5 -7.1°
Maximum altitude 18:12:11 76° 156° (SSE) 571 3.6 -7.7°
Enters shadow 18:16:19 10° 71° (ENE) 1,824 5.7 -8.4°
